Date String (YYYY-MM-DD hh:mm:ss) UTC,Instrument flags,absolute air pressure of the measurement (hPa),sample flow rate (lpm),inlet stack bypass flow (lpm),air temperature of the measurement (°C),ambient temperature measured by the external sensor (°C),aerosol sample conditioner tube jacket temperature (°C),OPC LED temperature (°C),internal box temperature (°C),relative humidity of the measurement (%),span deviation,mass concentration of particles derived from Lorenz-Mie calculation of OPC scattering (μg/m³),mass concentration of particles derived from Lorenz-Mie calculation of OPC scattering (μg/m³),mass concentration of particles derived from Lorenz-Mie calculation of OPC scattering (μg/m³)
DateTimeUTC,F1_M11,P_M11,Q1_M11,Q2_M11,T1_M11,T2_M11,T3_M11,T4_M11,T5_M11,U1_M11,ZSPAN_M11,X0_M11,X2_M11,X1_M11
2024-01-07 17:00:00,SystemResetWarning,0815.7,4.99,000.00,018.9,018.2,000.0,027.2,020.0,9.8,0000.0,0008.70,0003.16,0002.41
2024-01-07 17:01:00,SystemResetWarning,0815.6,5.00,000.00,018.9,018.1,000.0,027.2,020.0,9.7,0000.0,0008.68,0003.14,0002.37
2024-01-07 17:02:00,SystemResetWarning,0815.6,5.00,000.00,018.8,018.0,000.0,027.2,020.0,9.8,0000.0,0008.91,0003.08,0002.34
2024-01-07 17:03:00,SystemResetWarning,0815.6,5.01,000.00,018.8,017.9,000.0,027.3,020.0,9.9,0000.0,0008.81,0003.03,0002.30
2024-01-07 17:04:00,SystemResetWarning,0815.6,4.99,000.00,018.8,017.9,000.0,027.3,020.0,9.9,0000.0,0008.03,0002.94,0002.26
2024-01-07 17:05:00,SystemResetWarning,0815.7,5.00,000.00,018.8,017.8,000.0,027.3,020.0,10.0,0000.0,0007.60,0002.88,0002.22
2024-01-07 17:06:00,SystemResetWarning,0815.7,5.00,000.00,018.8,017.8,000.0,027.3,020.0,9.9,0000.0,0007.52,0002.84,0002.22
2024-01-07 17:07:00,SystemResetWarning,0815.7,5.00,000.00,018.8,017.7,000.0,027.3,020.0,10.0,0000.0,0007.28,0002.87,0002.21
2024-01-07 17:08:00,SystemResetWarning,0815.8,5.00,000.00,018.8,017.7,000.0,027.3,020.0,10.0,0000.0,0007.36,0002.86,0002.19
2024-01-07 17:09:00,SystemResetWarning,0815.7,5.00,000.00,018.8,017.6,000.0,027.3,020.0,10.0,0000.0,0006.03,0002.83,0002.19
2024-01-07 17:10:00,SystemResetWarning,0815.8,4.99,000.00,018.8,017.6,000.0,027.3,020.0,9.9,0000.0,0005.89,0002.89,0002.23
2024-01-07 17:11:00,SystemResetWarning,0815.8,5.01,000.00,018.8,017.6,000.0,027.3,020.0,9.9,0000.0,0006.07,0002.95,0002.28
2024-01-07 17:12:00,SystemResetWarning,0815.7,5.01,000.00,018.8,017.6,000.0,027.3,020.0,9.8,0000.0,0006.30,0003.02,0002.34
2024-01-07 17:13:00,SystemResetWarning,0815.8,5.01,000.00,018.8,017.6,000.0,027.3,020.0,9.9,0000.0,0006.10,0003.13,0002.41
2024-01-07 17:14:00,SystemResetWarning,0815.8,5.01,000.00,018.8,017.6,000.0,027.3,020.0,9.9,0000.0,0007.43,0003.21,0002.51
2024-01-07 17:15:00,SystemResetWarning,0815.7,4.99,000.00,018.8,017.6,000.0,027.3,020.0,9.9,0000.0,0007.93,0003.30,0002.60
2024-01-07 17:16:00,SystemResetWarning,0815.7,5.00,000.00,018.8,017.6,000.0,027.3,020.0,9.9,0000.0,0009.31,0003.41,0002.70
2024-01-07 17:17:00,SystemResetWarning,0815.7,5.01,000.00,018.8,018.0,000.0,027.2,020.4,9.9,0000.0,0009.85,0003.50,0002.79
2024-01-07 17:18:00,SystemResetWarning,0815.7,5.01,000.00,018.9,018.9,000.0,027.2,020.8,9.9,0000.0,0010.57,0003.57,0002.89
2024-01-07 17:19:00,SystemResetWarning,0815.7,4.98,000.00,019.0,019.2,000.0,027.2,020.7,9.9,0000.0,0010.65,0003.63,0002.99
2024-01-07 17:20:00,SystemResetWarning,0815.6,5.00,000.00,019.0,019.0,000.0,027.2,020.3,9.9,0000.0,0011.03,0003.74,0003.09
2024-01-07 17:21:00,SystemResetWarning,0815.6,5.01,000.00,019.0,018.8,000.0,027.2,020.1,9.9,0000.0,0011.30,0003.84,0003.13
2024-01-07 17:22:00,SystemResetWarning,0815.6,5.00,000.00,019.0,018.6,000.0,027.2,020.0,9.9,0000.0,0011.40,0003.90,0003.18
2024-01-07 17:23:00,SystemResetWarning,0815.6,4.99,000.00,018.9,018.4,000.0,027.3,020.0,9.8,0000.0,0011.52,0003.98,0003.21
2024-01-07 17:24:00,SystemResetWarning,0815.6,5.00,000.00,018.9,018.3,000.0,027.3,020.0,9.8,0000.0,0011.52,0004.01,0003.24
2024-01-07 17:25:00,SystemResetWarning,0815.6,5.01,000.00,018.9,018.2,000.0,027.3,020.0,9.7,0000.0,0011.02,0004.08,0003.27
2024-01-07 17:26:00,SystemResetWarning,0815.6,5.01,000.00,018.9,018.1,000.0,027.3,020.0,9.6,0000.0,0011.28,0004.17,0003.31
2024-01-07 17:27:00,SystemResetWarning,0815.6,5.00,000.00,018.9,018.0,000.0,027.3,020.0,9.6,0000.0,0010.18,0004.20,0003.35
2024-01-07 17:28:00,SystemResetWarning,0815.6,5.00,000.00,018.9,018.0,000.0,027.3,020.0,9.6,0000.0,0010.05,0004.22,0003.37
2024-01-07 17:29:00,SystemResetWarning,0815.5,5.00,000.00,018.9,018.0,000.0,027.3,020.0,9.7,0000.0,0009.12,0004.24,0003.40
2024-01-07 17:30:00,SystemResetWarning,0815.5,5.00,000.00,018.8,018.0,000.0,027.3,020.0,9.8,0000.0,0009.08,0004.27,0003.43
2024-01-07 17:31:00,SystemResetWarning,0815.5,5.00,000.00,018.8,017.9,000.0,027.3,020.0,9.9,0000.0,0009.64,0004.31,0003.45
2024-01-07 17:32:00,SystemResetWarning,0815.4,4.99,000.00,018.8,017.9,000.0,027.3,020.0,10.0,0000.0,0010.13,0004.32,0003.47
2024-01-07 17:33:00,SystemResetWarning,0815.4,4.99,000.00,018.8,017.9,000.0,027.3,020.0,10.0,0000.0,0010.48,0004.33,0003.48
2024-01-07 17:34:00,SystemResetWarning,0815.4,5.00,000.00,018.8,017.8,000.0,027.3,020.0,10.1,0000.0,0011.41,0004.31,0003.49
2024-01-07 17:35:00,SystemResetWarning,0815.4,5.01,000.00,018.8,017.9,000.0,027.3,020.0,10.0,0000.0,0011.36,0004.29,0003.49
2024-01-07 17:36:00,SystemResetWarning,0815.3,5.01,000.00,018.8,017.9,000.0,027.3,020.0,10.1,0000.0,0011.44,0004.26,0003.48
2024-01-07 17:37:00,SystemResetWarning,0815.3,5.01,000.00,018.8,017.9,000.0,027.3,020.0,10.2,0000.0,0011.64,0004.14,0003.44
2024-01-07 17:38:00,SystemResetWarning,0815.4,4.99,000.00,018.8,017.9,000.0,027.3,020.0,10.3,0000.0,0011.59,0004.06,0003.40
2024-01-07 17:39:00,SystemResetWarning,0815.4,4.99,000.00,018.8,017.9,000.0,027.3,020.0,10.4,0000.0,0011.51,0003.98,0003.36
2024-01-07 17:40:00,SystemResetWarning,0815.3,4.99,000.00,018.8,017.9,000.0,027.3,020.0,10.4,0000.0,0011.54,0003.92,0003.31
2024-01-07 17:41:00,SystemResetWarning,0815.3,5.00,000.00,018.8,017.8,000.0,027.3,020.0,10.4,0000.0,0011.51,0003.88,0003.28
2024-01-07 17:42:00,SystemResetWarning,0815.3,5.00,000.00,018.8,017.9,000.0,027.3,020.0,10.4,0000.0,0011.15,0003.83,0003.24
2024-01-07 17:43:00,SystemResetWarning,0815.3,5.00,000.00,018.8,017.9,000.0,027.3,020.0,10.4,0000.0,0010.14,0003.76,0003.23
2024-01-07 17:44:00,SystemResetWarning,0815.3,5.00,000.00,018.8,017.9,000.0,027.2,020.0,10.4,0000.0,0009.99,0003.74,0003.21
2024-01-07 17:45:00,SystemResetWarning,0815.3,5.01,000.00,018.8,017.9,000.0,027.2,020.0,10.4,0000.0,0008.75,0003.72,0003.20
2024-01-07 17:46:00,SystemResetWarning,0815.3,5.00,000.00,018.8,017.9,000.0,027.2,020.0,10.4,0000.0,0009.20,0003.72,0003.19
2024-01-07 17:47:00,SystemResetWarning,0815.3,5.00,000.00,018.8,017.9,000.0,027.2,020.0,10.4,0000.0,0009.76,0003.74,0003.19
2024-01-07 17:48:00,SystemResetWarning,0815.2,5.00,000.00,018.8,017.9,000.0,027.2,020.0,10.4,0000.0,0009.10,0003.76,0003.20
2024-01-07 17:49:00,SystemResetWarning,0815.2,4.99,000.00,018.8,017.9,000.0,027.2,020.0,10.4,0000.0,0009.05,0003.80,0003.21
2024-01-07 17:50:00,SystemResetWarning,0815.2,5.00,000.00,018.8,017.9,000.0,027.2,020.0,10.3,0000.0,0008.93,0003.81,0003.23
2024-01-07 17:51:00,SystemResetWarning,0815.3,5.00,000.00,018.8,017.9,000.0,027.2,020.0,10.3,0000.0,0008.77,0003.84,0003.25
2024-01-07 17:52:00,SystemResetWarning,0815.3,5.00,000.00,018.8,017.8,000.0,027.2,020.0,10.2,0000.0,0008.91,0003.87,0003.27
2024-01-07 17:53:00,SystemResetWarning,0815.3,5.00,000.00,018.8,017.8,000.0,027.2,020.0,10.2,0000.0,0009.49,0003.88,0003.28
2024-01-07 17:54:00,SystemResetWarning,0815.2,5.00,000.00,018.8,017.8,000.0,027.2,020.0,10.1,0000.0,0009.66,0003.90,0003.28
2024-01-07 17:55:00,SystemResetWarning,0815.2,5.00,000.00,018.8,017.7,000.0,027.2,020.0,10.1,0000.0,0010.85,0003.91,0003.29
2024-01-07 17:56:00,SystemResetWarning,0815.2,5.00,000.00,018.8,017.7,000.0,027.2,020.0,10.0,0000.0,0011.51,0003.94,0003.29
2024-01-07 17:57:00,SystemResetWarning,0815.2,5.00,000.00,018.8,017.7,000.0,027.2,020.0,10.0,0000.0,0012.02,0003.98,0003.29
2024-01-07 17:58:00,SystemResetWarning,0815.1,5.00,000.00,018.8,017.7,000.0,027.2,020.0,9.9,0000.0,0011.59,0004.00,0003.28
2024-01-07 17:59:00,SystemResetWarning,0815.1,5.00,000.00,018.8,017.7,000.0,027.2,020.0,9.9,0000.0,0011.94,0004.02,0003.29
